Texico, NM

3:34 PM MST on February 20, 2017 (GMT -0700)
Clovis Municipal

Weather History for KCVN - December, 2012

Change the Weather History Date:

Tuesday, December 25, 2012

  Actual Average Record
Temperature  
Mean Temperature 22 °F -  
Max Temperature 33 °F 47 °F 91 °F (1919)
Min Temperature 12 °F 21 °F -9 °F (1918)
Degree Days  
Heating Degree Days 42    
Moisture  
Dew Point 10 °F    
Average Humidity 69    
Maximum Humidity 86    
Minimum Humidity 48    
Precipitation  
Precipitation 0.00 in - - ()
Sea Level Pressure  
Sea Level Pressure 30.02 in    
Wind  
Wind Speed 21 mph (NNE)    
Max Wind Speed 37 mph    
Max Gust Speed 43 mph    
Visibility 8 miles    
Events      
Averages and records for this station are not official NWS values.
T = Trace of Precipitation, MM = Missing Value Source: NWS Daily Summary

Daily Weather History Graph

Daily Weather History Graph

Search for Another Location

Airport or City:

Trip Planner

Search our weather history database for the weather conditions in past years. The results will help you decide how hot, cold, wet, or windy it might be!

Date:

Astronomy

Dec. 25, 2012 Rise Set
Actual Time 6:56 AM MST 4:48 PM MST
Civil Twilight 6:29 AM MST 5:16 PM MST
Nautical Twilight 5:57 AM MST 5:47 PM MST
Astronomical Twilight 5:26 AM MST 6:18 PM MST
Moon 2:56 PM MST (12/25) 4:33 AM MST (12/25)
Length of Visible Light 10h 47m
Length of Day
9h 51m
Waxing Gibbous, 94% of the Moon is Illuminated
Dec 25
Waxing Gibbous
Dec 28
Full
Jan 4
Last Quarter
Jan 11
New
Jan 18
First Quarter

Hourly Weather History & Observations

Time (MST) Temp. Windchill Dew Point Humidity Pressure Visibility Wind Dir Wind Speed Gust Speed Precip Events Conditions
12:15 AM 33.8 °F 24.3 °F 17.6 °F 52% 29.65 in 10.0 mi East 13.8 mph - N/A   Mostly Cloudy
12:35 AM 33.8 °F 23.5 °F 15.8 °F 48% 29.63 in 10.0 mi East 16.1 mph - N/A   Overcast
12:55 AM 32.0 °F 20.8 °F 15.8 °F 51% 29.64 in 10.0 mi East 17.3 mph - N/A   Overcast
1:15 AM 32.0 °F 21.6 °F 15.8 °F 51% 29.64 in 10.0 mi East 15.0 mph - N/A   Mostly Cloudy
1:35 AM 30.2 °F 21.9 °F 15.8 °F 55% 29.67 in 10.0 mi East 9.2 mph - N/A   Mostly Cloudy
1:55 AM 30.2 °F 21.3 °F 15.8 °F 55% 29.70 in 10.0 mi East 10.4 mph - N/A   Mostly Cloudy
2:15 AM 30.2 °F 18.9 °F 15.8 °F 55% 29.71 in 3.0 mi ENE 16.1 mph - N/A   Overcast
2:35 AM 26.6 °F 13.8 °F 19.4 °F 74% 29.73 in 1.5 mi ENE 17.3 mph - N/A   Overcast
2:55 AM 24.8 °F 11.9 °F 19.4 °F 80% 29.75 in 1.5 mi NE 16.1 mph - N/A   Overcast
3:15 AM 24.8 °F 11.1 °F 21.2 °F 86% 29.76 in 3.0 mi NE 18.4 mph - N/A   Overcast
3:35 AM 23.0 °F 6.9 °F 17.6 °F 80% 29.78 in 3.0 mi NE 24.2 mph - N/A   Overcast
3:55 AM 21.2 °F 4.9 °F 15.8 °F 80% 29.79 in 2.5 mi NNE 23.0 mph 29.9 mph N/A   Overcast
4:15 AM 21.2 °F 4.2 °F 15.8 °F 80% 29.80 in 2.0 mi NNE 25.3 mph 29.9 mph N/A   Overcast
4:35 AM 21.2 °F 3.3 °F 15.8 °F 80% 29.82 in 2.0 mi NNE 28.8 mph 33.4 mph N/A   Overcast
4:55 AM 21.2 °F 3.3 °F 12.2 °F 68% 29.84 in 2.0 mi North 28.8 mph 35.7 mph N/A   Overcast
5:15 AM 19.4 °F 1.8 °F 12.2 °F 74% 29.86 in 2.0 mi North 25.3 mph 34.5 mph N/A   Overcast
5:35 AM 19.4 °F 1.4 °F 10.4 °F 68% 29.88 in 1.5 mi NNE 26.5 mph 32.2 mph N/A   Overcast
5:55 AM 19.4 °F 2.5 °F 10.4 °F 68% 29.88 in 1.8 mi NNE 23.0 mph 32.2 mph N/A   Overcast
6:15 AM 17.6 °F -1.0 °F 10.4 °F 73% 29.89 in 4.0 mi NNE 26.5 mph - N/A   Overcast
6:35 AM 17.6 °F -2.5 °F 8.6 °F 68% 29.92 in 1.5 mi NNE 32.2 mph 40.3 mph N/A   Overcast
6:55 AM 17.6 °F -1.9 °F 10.4 °F 73% 29.94 in 2.5 mi North 29.9 mph 36.8 mph N/A   Mostly Cloudy
7:15 AM 17.6 °F 0.1 °F 8.6 °F 68% 29.95 in 2.5 mi North 23.0 mph 38.0 mph N/A   Mostly Cloudy
7:35 AM 15.8 °F -1.9 °F 8.6 °F 73% 29.97 in 8.0 mi North 21.9 mph - N/A   Mostly Cloudy
7:55 AM 15.8 °F -3.7 °F 8.6 °F 73% 29.98 in 9.0 mi North 27.6 mph 31.1 mph N/A   Scattered Clouds
8:15 AM 15.8 °F -2.3 °F 6.8 °F 68% 29.99 in 9.0 mi North 23.0 mph 28.8 mph N/A   Mostly Cloudy
8:35 AM 15.8 °F -3.7 °F 8.6 °F 73% 30.01 in 9.0 mi North 27.6 mph - N/A   Partly Cloudy
8:55 AM 17.6 °F 0.1 °F 6.8 °F 63% 30.02 in 9.0 mi North 23.0 mph 32.2 mph N/A   Clear
9:15 AM 17.6 °F -2.5 °F 8.6 °F 68% 30.04 in 9.0 mi North 32.2 mph 35.7 mph N/A   Partly Cloudy
9:35 AM 17.6 °F -2.5 °F 8.6 °F 68% 30.04 in 4.0 mi North 32.2 mph 39.1 mph N/A   Clear
9:55 AM 17.6 °F -1.3 °F 6.8 °F 63% 30.06 in 2.5 mi North 27.6 mph 40.3 mph N/A   Clear
10:15 AM 19.4 °F -0.0 °F 8.6 °F 63% 30.08 in 8.0 mi North 32.2 mph 38.0 mph N/A   Clear
10:35 AM 19.4 °F -0.0 °F 8.6 °F 63% 30.10 in 7.0 mi North 32.2 mph 40.3 mph N/A   Clear
10:55 AM 19.4 °F 1.8 °F 8.6 °F 63% 30.10 in 10.0 mi North 25.3 mph 33.4 mph N/A   Partly Cloudy
11:15 AM 19.4 °F -0.3 °F 8.6 °F 63% 30.10 in 10.0 mi North 33.4 mph 39.1 mph N/A   Partly Cloudy
11:35 AM 21.2 °F 3.0 °F 8.6 °F 58% 30.10 in 10.0 mi North 29.9 mph 36.8 mph N/A   Scattered Clouds
11:55 AM 21.2 °F 3.0 °F 8.6 °F 58% 30.10 in 10.0 mi North 29.9 mph 39.1 mph N/A   Scattered Clouds
12:15 PM 21.2 °F 2.7 °F 10.4 °F 63% 30.10 in 10.0 mi North 31.1 mph 39.1 mph N/A   Mostly Cloudy
12:35 PM 21.2 °F 3.0 °F 8.6 °F 58% 30.11 in 10.0 mi North 29.9 mph 34.5 mph N/A   Mostly Cloudy
12:55 PM 21.2 °F 2.2 °F 10.4 °F 63% 30.10 in 10.0 mi North 33.4 mph 39.1 mph N/A   Scattered Clouds
1:15 PM 21.2 °F 3.0 °F 8.6 °F 58% 30.11 in 10.0 mi North 29.9 mph 36.8 mph N/A   Mostly Cloudy
1:35 PM 23.0 °F 4.9 °F 10.4 °F 59% 30.11 in 10.0 mi North 32.2 mph 39.1 mph N/A   Mostly Cloudy
1:55 PM 21.2 °F 2.2 °F 10.4 °F 63% 30.11 in 10.0 mi North 33.4 mph 42.6 mph N/A   Partly Cloudy
2:15 PM 21.2 °F 1.4 °F 10.4 °F 63% 30.10 in 10.0 mi North 36.8 mph 42.6 mph N/A   Clear
2:35 PM 21.2 °F 2.2 °F 10.4 °F 63% 30.10 in 10.0 mi North 33.4 mph 39.1 mph N/A   Clear
2:55 PM 21.2 °F 2.4 °F 10.4 °F 63% 30.12 in 10.0 mi North 32.2 mph 38.0 mph N/A   Clear
3:15 PM 21.2 °F 3.0 °F 10.4 °F 63% 30.14 in 10.0 mi North 29.9 mph - N/A   Partly Cloudy
3:35 PM 21.2 °F 3.9 °F 8.6 °F 58% 30.16 in 10.0 mi North 26.5 mph 31.1 mph N/A   Clear
3:55 PM 19.4 °F 2.8 °F 8.6 °F 63% 30.18 in 10.0 mi North 21.9 mph 27.6 mph N/A   Partly Cloudy
4:15 PM 17.6 °F 0.1 °F 10.4 °F 73% 30.18 in 10.0 mi North 23.0 mph 26.5 mph N/A   Partly Cloudy
4:35 PM 17.6 °F 0.1 °F 10.4 °F 73% 30.17 in 10.0 mi North 23.0 mph 29.9 mph N/A   Clear
4:55 PM 17.6 °F 0.9 °F 8.6 °F 68% 30.17 in 10.0 mi North 20.7 mph - N/A   Clear
5:35 PM 15.8 °F 0.3 °F 8.6 °F 73% 30.18 in 10.0 mi North 16.1 mph - N/A   Clear
5:55 PM 15.8 °F -0.2 °F 8.6 °F 73% 30.18 in 10.0 mi North 17.3 mph - N/A   Clear
6:15 PM 15.8 °F -0.2 °F 8.6 °F 73% 30.17 in 10.0 mi North 17.3 mph - N/A   Clear
6:35 PM 15.8 °F 0.3 °F 8.6 °F 73% 30.18 in 10.0 mi North 16.1 mph - N/A   Clear
6:55 PM 15.8 °F -0.6 °F 8.6 °F 73% 30.16 in 10.0 mi North 18.4 mph - N/A   Clear
7:15 PM 15.8 °F -1.5 °F 8.6 °F 73% 30.16 in 10.0 mi NNE 20.7 mph - N/A   Clear
7:35 PM 15.8 °F -0.2 °F 6.8 °F 68% 30.17 in 10.0 mi NNE 17.3 mph - N/A   Clear
7:55 PM 14.0 °F -0.8 °F 6.8 °F 73% 30.17 in 10.0 mi North 13.8 mph - N/A   Clear
8:15 PM 14.0 °F -0.2 °F 6.8 °F 73% 30.19 in 10.0 mi NNW 12.7 mph - N/A   Clear
8:35 PM 14.0 °F -0.8 °F 6.8 °F 73% 30.19 in 10.0 mi North 13.8 mph - N/A   Clear
8:55 PM 12.2 °F -4.8 °F 6.8 °F 79% 30.20 in 10.0 mi North 17.3 mph - N/A   Clear
9:15 PM 12.2 °F -4.3 °F 6.8 °F 79% 30.20 in 10.0 mi North 16.1 mph - N/A   Clear
9:35 PM 12.2 °F -6.3 °F 6.8 °F 79% 30.18 in 10.0 mi NNE 20.7 mph 25.3 mph N/A   Clear
9:55 PM 12.2 °F -6.7 °F 6.8 °F 79% 30.17 in 10.0 mi NNE 21.9 mph 25.3 mph N/A   Clear
10:15 PM 12.2 °F -7.5 °F 6.8 °F 79% 30.15 in 10.0 mi NNE 24.2 mph - N/A   Clear
10:35 PM 12.2 °F -6.3 °F 6.8 °F 79% 30.16 in 10.0 mi NNE 20.7 mph - N/A   Clear
10:55 PM 12.2 °F -5.3 °F 6.8 °F 79% 30.17 in 10.0 mi NNE 18.4 mph - N/A   Clear
11:15 PM 12.2 °F -3.7 °F 6.8 °F 79% 30.17 in 10.0 mi North 15.0 mph - N/A   Clear
11:35 PM 12.2 °F -1.8 °F 5.0 °F 73% 30.19 in 10.0 mi North 11.5 mph - N/A   Clear
11:55 PM 12.2 °F -5.3 °F 6.8 °F 79% 30.16 in 10.0 mi NNE 18.4 mph - N/A   Clear